This demonstration page uses our WeatherBlox Daily Observations layout. Learn more.

Left ArrowRight Arrow

39.51506, -84.39828

Hourly Observations for July 25, 2021

Temp ( °F °C ) Dew Point ( °F °C ) Humidity (%) Winds ( mph kmh ) Pressure ( in mb ) Visibility ( mi km ) Precip ( " mm )
12:15 am 00:15 Clear 76 24.5 72 22.3 88 88 SW 7 11 29.91 1013 10 16 N/A
12:35 am 00:35 Clear 77 24.8 73 22.5 87 87 SW 6 9 29.91 1013 10 16 N/A
12:55 am 00:55 Clear 78 25.4 73 22.5 84 84 SW 8 13 29.90 1013 10 16 N/A
1:15 am 01:15 Clear 78 25.5 73 22.6 84 84 SW 8 13 29.90 1013 10 16 N/A
1:35 am 01:35 Cloudy 78 25.4 73 22.7 85 85 WSW 8 13 29.92 1013 10 16 N/A
1:55 am 01:55 Cloudy with Nearby Thunderstorms 78 25.4 73 22.7 85 85 SW 13 20 29.91 1013 10 16 N/A
2:15 am 02:15 Cloudy with Nearby Thunderstorms 78 25.6 73 22.8 85 85 SW 13 20 29.90 1013 10 16 N/A
2:35 am 02:35 Partly Cloudy with Nearby Thunderstorms 77 25.1 74 23.2 89 89 SW 13 20 29.89 1012 7 11 N/A
2:55 am 02:55 Partly Cloudy with Nearby Thunderstorms 77 25.1 74 23.1 89 89 WSW 8 13 29.89 1012 10 16 N/A
3:15 am 03:15 Mostly Cloudy with Nearby Thunderstorms 77 25 74 23.3 90 90 WSW 7 11 29.89 1012 7 11 N/A
3:35 am 03:35 Mostly Cloudy with Nearby Thunderstorms 77 24.9 74 23.2 90 90 SW 8 13 29.88 1012 7 11 N/A
3:55 am 03:55 Mostly Cloudy 77 25 74 23.2 90 90 WSW 3 6 29.89 1012 7 11 N/A
4:15 am 04:15 Cloudy 76 24.4 74 23.4 94 94 N N/A 29.89 1012 7 11 N/A
4:35 am 04:35 Cloudy with Nearby Thunderstorms 75 24.1 74 23.6 97 97 N N/A 29.91 1013 7 11 N/A
4:55 am 04:55 Cloudy with Mist and Fog 75 24 75 24 100 100 WSW 3 6 29.92 1013 7 11 N/A
5:15 am 05:15 Mostly Cloudy 76 24.2 74 23.4 95 95 SW 3 6 29.91 1013 7 11 N/A
5:35 am 05:35 Clear 75 24 74 23.4 96 96 SW 6 9 29.91 1013 7 11 N/A
5:55 am 05:55 Clear with Nearby Thunderstorms 74 23.5 74 23.2 98 98 W 5 7 29.91 1013 7 11 N/A
6:15 am 06:15 Clear with Nearby Thunderstorms 74 23.3 74 23.3 100 100 SW 3 6 29.91 1013 5 8 N/A
6:35 am 06:35 Sunny with Mist and Fog 72 22 N/A N/A N N/A 29.91 1013 3 4 N/A
6:55 am 06:55 Sunny with Mist and Fog 72 22 N/A N/A N N/A 29.92 1013 2 3 N/A
7:15 am 07:15 Sunny with Mist and Fog 72 22 N/A N/A N N/A 29.92 1013 2 3 N/A
7:35 am 07:35 Partly Cloudy with Mist and Fog 73 23 N/A N/A N N/A 29.93 1013 3 4 N/A
7:55 am 07:55 Partly Cloudy with Mist and Fog 75 24 N/A N/A WSW 5 7 29.93 1013 4 6 N/A
8:15 am 08:15 Sunny with Mist and Fog 76 24.3 75 24 98 98 SW 7 11 29.93 1014 5 8 N/A
8:35 am 08:35 Sunny with Mist and Fog 77 24.8 76 24.3 97 97 WSW 7 11 29.92 1013 5 8 N/A
8:55 am 08:55 Sunny with Mist and Fog 77 25.1 76 24.3 95 95 WSW 9 15 29.93 1014 5 8 N/A
9:15 am 09:15 Partly Cloudy with Mist and Fog 79 26.1 76 24.5 91 91 W 7 11 29.94 1014 5 8 N/A
9:35 am 09:35 Partly Cloudy 79 26.2 75 23.8 87 87 W 8 13 29.94 1014 7 11 N/A
9:55 am 09:55 Partly Cloudy 81 27.1 75 24 83 83 WNW 8 13 29.94 1014 7 11 N/A
10:15 am 10:15 Partly Cloudy 80 26.5 75 23.8 85 85 NW 7 11 29.94 1014 10 16 N/A
10:35 am 10:35 Mostly Cloudy with Haze 81 27.2 75 23.9 82 82 N 6 9 29.94 1014 7 11 N/A
10:55 am 10:55 Mostly Cloudy with Haze 81 27.4 75 24 82 82 NNW 8 13 29.93 1013 5 8 N/A
11:15 am 11:15 Cloudy 82 27.6 75 23.8 80 80 NNW 6 9 29.93 1013 10 16 N/A
11:35 am 11:35 Partly Cloudy 83 28.2 75 24.1 78 78 NW 7 11 29.93 1013 7 11 N/A
11:55 am 11:55 Partly Cloudy 83 28.6 75 24.1 77 77 NNW 8 13 29.93 1013 10 16 N/A
12:15 pm 12:15 Hazy 85 29.2 77 24.8 77 77 NW 3 6 29.92 1013 7 11 N/A
12:35 pm 12:35 Mostly Cloudy 86 29.8 76 24.3 72 72 W 8 13 29.92 1013 10 16 N/A
12:55 pm 12:55 Partly Cloudy 85 29.4 76 24.3 74 74 W 6 9 29.92 1013 10 16 N/A
1:15 pm 13:15 Partly Cloudy 85 29.5 76 24.3 74 74 N N/A 29.92 1013 10 16 N/A
1:35 pm 13:35 Partly Cloudy 86 30 76 24.4 72 72 WNW 8 13 29.91 1013 10 16 N/A
1:55 pm 13:55 Partly Cloudy 87 30.5 76 24.6 71 71 W 7 11 29.91 1013 10 16 N/A
2:15 pm 14:15 Mostly Cloudy 86 30.2 76 24.2 70 70 N N/A 29.91 1013 10 16 N/A
2:35 pm 14:35 Mostly Cloudy 87 30.6 77 24.8 71 71 NW 3 6 29.91 1013 7 11 N/A
2:55 pm 14:55 Mostly Cloudy 85 29.6 76 24.4 74 74 NNW 3 6 29.91 1013 10 16 N/A
3:15 pm 15:15 Sunny 87 30.7 75 24 67 67 N N/A 29.91 1013 10 16 N/A
3:35 pm 15:35 Mostly Cloudy 88 31.2 77 24.9 69 69 WNW 7 11 29.91 1013 10 16 N/A
3:55 pm 15:55 Partly Cloudy 88 30.9 75 23.8 66 66 NW 5 7 29.90 1013 10 16 N/A
4:15 pm 16:15 Sunny 89 31.9 75 24.1 63 63 WNW 7 11 29.90 1012 10 16 N/A
4:35 pm 16:35 Partly Cloudy 89 31.4 75 23.9 64 64 NW 9 15 29.89 1012 10 16 N/A
4:55 pm 16:55 Hazy 87 30.6 76 24.6 70 70 N 6 9 29.88 1012 5 8 N/A
5:15 pm 17:15 Partly Cloudy 88 31.3 76 24.2 66 66 NNW 6 9 29.88 1012 10 16 N/A
5:35 pm 17:35 Partly Cloudy 87 30.8 76 24.6 70 70 NNW 5 7 29.88 1012 10 16 N/A
5:55 pm 17:55 Mostly Cloudy 87 30.4 74 23.6 67 67 N 8 13 29.87 1012 10 16 N/A
6:15 pm 18:15 Cloudy with Heavy Rain 79 26 72 22 79 79 NW 14 22 29.90 1013 3 5 0.13 3.30
6:35 pm 18:35 Partly Cloudy 80 26.9 75 24 84 84 WSW 6 9 29.90 1012 10 16 0.26 6.60
6:55 pm 18:55 Partly Cloudy 81 27.2 76 24.3 84 84 SW 3 6 29.89 1012 10 16 0.26 6.60
7:15 pm 19:15 Partly Cloudy with Nearby Thunderstorms 79 26.2 77 25 93 93 N N/A 29.89 1012 10 16 N/A
7:35 pm 19:35 Partly Cloudy 80 26.8 77 24.9 89 89 N N/A 29.89 1012 10 16 N/A
7:55 pm 19:55 Sunny 81 27.4 78 25.4 89 89 SE 3 6 29.89 1012 10 16 N/A
8:15 pm 20:15 Sunny 81 27 78 25.3 90 90 SE 7 11 29.91 1013 10 16 N/A
8:35 pm 20:35 Mostly Cloudy 80 26.6 77 25 91 91 N N/A 29.91 1013 10 16 N/A
8:55 pm 20:55 Sunny 77 25 79 26 100 100 E 5 7 29.91 1013 10 16 N/A
9:15 pm 21:15 Clear 77 25.2 77 25 99 99 N N/A 29.91 1013 10 16 N/A
9:35 pm 21:35 Clear with Mist and Fog 75 24 N/A N/A N N/A 29.93 1013 4 6 N/A
9:55 pm 21:55 Hazy 75 24 N/A N/A N N/A 29.93 1013 4 6 N/A
10:15 pm 22:15 Mostly Cloudy with Mist and Fog 75 24 N/A N/A N N/A 29.93 1013 1 2 N/A
10:35 pm 22:35 Clear with Mist and Fog 73 23 N/A N/A N N/A 29.94 1014 4 6 N/A
10:55 pm 22:55 Clear with Mist and Fog 73 23 N/A N/A N N/A 29.94 1014 2 3 N/A
11:15 pm 23:15 Mostly Cloudy with Mist and Fog 73 23 N/A N/A N N/A 29.94 1014 2 3 N/A
11:35 pm 23:35 Cloudy with Mist and Fog 73 23 N/A N/A N N/A 29.95 1014 2 3 N/A
11:55 pm 23:55 Hazy 73 23 N/A N/A N N/A 29.94 1014 5 8 N/A

Powered by AerisWeather